GSPOT EGKB-EGTR

Flight info

Callsign GSPOT
Flight time 0h 23m
Altitude 5000
Route DET N601 BPK
Aircraft BE58/L-SDFGRY/C

Departure

Time 2026-05-05 02:30
Airport London Biggin Hill Airport (EGKB)

Arrival

Time 2026-05-05 02:53
Airport Elstree Airfield (EGTR)
Time Latitude Longitude Altitude Speed Heading
2026-05-05 02:21 51.33159 0.02935 562 ft 0 kts 199°
2026-05-05 02:28 51.33153 0.02965 568 ft 9 kts 54°
2026-05-05 02:28 51.33239 0.03088 558 ft 24 kts 29°
2026-05-05 02:28 51.33367 0.03193 548 ft 19 kts 48°
2026-05-05 02:29 51.33390 0.03310 547 ft 14 kts 53°
2026-05-05 02:29 51.33558 0.03439 535 ft 21 kts 25°
2026-05-05 02:29 51.33612 0.03519 534 ft 16 kts 70°
2026-05-05 02:29 51.33567 0.03604 538 ft 14 kts 201°
2026-05-05 02:30 51.33434 0.03502 546 ft 48 kts 205°
2026-05-05 02:30 51.32875 0.03064 688 ft 113 kts 207°
2026-05-05 02:30 51.32237 0.02281 1297 ft 122 kts 226°
2026-05-05 02:30 51.31654 0.01232 1755 ft 129 kts 236°
2026-05-05 02:31 51.31431 -0.00149 2089 ft 132 kts 286°
2026-05-05 02:31 51.31951 -0.01226 2505 ft 123 kts 340°
2026-05-05 02:31 51.32753 -0.01254 3061 ft 115 kts 19°
2026-05-05 02:31 51.33368 -0.00442 3539 ft 120 kts 54°
2026-05-05 02:32 51.33588 0.00821 4076 ft 122 kts 88°
2026-05-05 02:32 51.33357 0.02217 4362 ft 139 kts 104°
2026-05-05 02:32 51.33026 0.03731 4548 ft 156 kts 105°
2026-05-05 02:32 51.32650 0.05486 4605 ft 170 kts 105°
2026-05-05 02:33 51.32344 0.07303 4833 ft 171 kts 97°
2026-05-05 02:33 51.32214 0.09215 4929 ft 175 kts 83°
2026-05-05 02:33 51.32377 0.11176 4971 ft 181 kts 77°
2026-05-05 02:33 51.32531 0.13204 4990 ft 187 kts 82°
2026-05-05 02:34 51.32588 0.15309 4997 ft 192 kts 86°
2026-05-05 02:34 51.32574 0.17457 5000 ft 193 kts 88°
2026-05-05 02:34 51.32526 0.19607 5005 ft 195 kts 89°
2026-05-05 02:34 51.32459 0.21779 5009 ft 196 kts 90°
2026-05-05 02:35 51.32385 0.23962 5008 ft 197 kts 90°
2026-05-05 02:35 51.32308 0.26142 5010 ft 197 kts 90°
2026-05-05 02:35 51.32229 0.28335 5011 ft 198 kts 90°
2026-05-05 02:35 51.32149 0.30530 5014 ft 198 kts 90°
2026-05-05 02:36 51.32070 0.32729 5018 ft 198 kts 90°
2026-05-05 02:36 51.31988 0.34927 5007 ft 198 kts 90°
2026-05-05 02:36 51.31903 0.37117 5014 ft 197 kts 91°
2026-05-05 02:36 51.31768 0.39302 5016 ft 198 kts 93°
2026-05-05 02:37 51.31618 0.41487 5016 ft 198 kts 93°
2026-05-05 02:37 51.31467 0.43673 5017 ft 198 kts 93°
2026-05-05 02:37 51.31321 0.45854 5017 ft 198 kts 92°
2026-05-05 02:37 51.31176 0.48045 5020 ft 198 kts 93°
2026-05-05 02:38 51.31033 0.50222 5018 ft 197 kts 92°
2026-05-05 02:38 51.31065 0.52376 5016 ft 192 kts 70°
2026-05-05 02:38 51.31811 0.54020 5016 ft 186 kts 32°
2026-05-05 02:38 51.33020 0.54563 5003 ft 183 kts 356°
2026-05-05 02:39 51.34186 0.53811 5004 ft 185 kts 322°
2026-05-05 02:39 51.35131 0.52406 5002 ft 186 kts 316°
2026-05-05 02:39 51.36045 0.50938 4998 ft 186 kts 316°
2026-05-05 02:39 51.36956 0.49471 4996 ft 187 kts 316°
2026-05-05 02:40 51.37878 0.47999 4997 ft 187 kts 316°
2026-05-05 02:40 51.38799 0.46541 4993 ft 186 kts 316°
2026-05-05 02:40 51.39720 0.45090 4992 ft 185 kts 316°
2026-05-05 02:40 51.40636 0.43652 4993 ft 184 kts 316°
2026-05-05 02:41 51.41551 0.42216 5000 ft 184 kts 316°
2026-05-05 02:41 51.42474 0.40769 4887 ft 189 kts 316°
2026-05-05 02:41 51.43424 0.39282 4724 ft 193 kts 316°
2026-05-05 02:41 51.44391 0.37765 4546 ft 196 kts 316°
2026-05-05 02:42 51.45367 0.36233 4362 ft 197 kts 316°
2026-05-05 02:42 51.46350 0.34688 4176 ft 198 kts 316°
2026-05-05 02:42 51.47336 0.33137 3996 ft 199 kts 316°
2026-05-05 02:42 51.48324 0.31583 3812 ft 199 kts 316°
2026-05-05 02:43 51.49338 0.30068 3583 ft 201 kts 324°
2026-05-05 02:43 51.50568 0.28972 3266 ft 204 kts 333°
2026-05-05 02:43 51.51805 0.27912 2896 ft 200 kts 332°
2026-05-05 02:43 51.53002 0.26832 2580 ft 196 kts 332°
2026-05-05 02:44 51.54187 0.25723 2175 ft 198 kts 332°
2026-05-05 02:44 51.55433 0.24742 1758 ft 201 kts 338°
2026-05-05 02:44 51.56719 0.23782 1286 ft 205 kts 335°
2026-05-05 02:44 51.57963 0.22678 972 ft 202 kts 329°
2026-05-05 02:45 51.59108 0.21458 870 ft 193 kts 322°
2026-05-05 02:45 51.59966 0.19871 856 ft 186 kts 307°
2026-05-05 02:45 51.60691 0.18174 864 ft 182 kts 304°
2026-05-05 02:45 51.61360 0.16441 864 ft 183 kts 303°
2026-05-05 02:46 51.61978 0.14672 907 ft 180 kts 297°
2026-05-05 02:46 51.62170 0.12716 982 ft 180 kts 270°
2026-05-05 02:46 51.62121 0.10700 1034 ft 180 kts 270°
2026-05-05 02:46 51.62197 0.08715 1044 ft 178 kts 283°
2026-05-05 02:47 51.62511 0.06783 1032 ft 179 kts 289°
2026-05-05 02:47 51.62845 0.04860 1054 ft 180 kts 287°
2026-05-05 02:47 51.63148 0.02867 978 ft 186 kts 285°
2026-05-05 02:47 51.63474 0.00856 920 ft 186 kts 290°
2026-05-05 02:48 51.63946 -0.01096 876 ft 185 kts 292°
2026-05-05 02:48 51.64399 -0.03015 904 ft 183 kts 290°
2026-05-05 02:48 51.64755 -0.05002 837 ft 186 kts 284°
2026-05-05 02:48 51.65032 -0.07027 836 ft 185 kts 281°
2026-05-05 02:49 51.65312 -0.09028 873 ft 181 kts 293°
2026-05-05 02:49 51.66018 -0.10666 943 ft 178 kts 311°
2026-05-05 02:49 51.66802 -0.12217 912 ft 181 kts 307°
2026-05-05 02:49 51.67517 -0.13910 887 ft 182 kts 301°
2026-05-05 02:50 51.68074 -0.15734 892 ft 183 kts 289°
2026-05-05 02:50 51.68286 -0.17738 915 ft 181 kts 270°
2026-05-05 02:50 51.68318 -0.19767 947 ft 179 kts 271°
2026-05-05 02:50 51.68314 -0.21748 1043 ft 176 kts 270°
2026-05-05 02:51 51.68252 -0.23714 1081 ft 177 kts 265°
2026-05-05 02:51 51.68027 -0.25675 1073 ft 180 kts 257°
2026-05-05 02:51 51.67714 -0.27653 1020 ft 183 kts 256°
2026-05-05 02:51 51.67392 -0.29636 1006 ft 184 kts 256°
2026-05-05 02:52 51.67075 -0.31529 979 ft 161 kts 254°
2026-05-05 02:52 51.66738 -0.33096 949 ft 134 kts 248°
2026-05-05 02:52 51.66371 -0.34392 835 ft 123 kts 237°
2026-05-05 02:52 51.65668 -0.34626 619 ft 112 kts 141°
2026-05-05 02:53 51.65485 -0.33585 360 ft 93 kts 89°
2026-05-05 02:53 51.65575 -0.32635 306 ft 67 kts 80°
2026-05-05 02:53 51.65580 -0.32337 307 ft 14 kts 165°
2026-05-05 02:53 51.65505 -0.32315 307 ft 9 kts 238°
2026-05-05 02:54 51.65493 -0.32376 307 ft 1 kts 255°
2026-05-05 02:54 51.65478 -0.32378 307 ft 2 kts 101°
2026-05-05 02:54 51.65478 -0.32373 307 ft 0 kts 80°